Tracking 32964 objects as of 20-Jan-2026
HD Live streaming from Space Station
objects crossing your sky now

STARLINK-11200

Track STARLINK-11200 now!
10-day predictions
STARLINK-11200 is classified as:


NORAD ID: 60310
Int'l Code: 2024-133K
Perigee: 366.0 km
Apogee: 367.5 km
Inclination: 53.2 °
Period: 91.7 minutes
Semi major axis: 6737 km
RCS: Unknown
Launch date: July 28, 2024
Source: United States (US)
Launch site: AIR FORCE WESTERN TEST RANGE (AFWTR)
Your satellite tracking list
Your tracking list is empty




NASA's NSSDC Master Catalog

Two Line Element Set (TLE):
1 60310U 24133K   26020.27269875  .00005163  00000-0  47378-4 0  9997
2 60310  53.1580  24.6037 0001107 103.0168 257.0974 15.69744683 86139
Source of the keplerian elements: AFSPC